KC0AFB Weather Reports


time (UTC)temp
C
wind
direction
speed
KPH
gust
KPH
rain 1hr
cm
rain 24hr
cm
rain mn
cm
humidity
%
barometer
mb
20260510180639 13 103 0.0 0.0 0.00 0.00 0.00 41 1023.1
20260510180137 13 214 6.4 9.7 0.00 0.00 0.00 43 1023.4
20260510175633 13 308 8.0 8.0 0.00 0.00 0.00 43 1023.2
20260510175128 13 351 8.0 9.7 0.00 0.00 0.00 43 1023.3
20260510174626 13 278 9.7 11.3 0.00 0.00 0.00 44 1023.5
20260510174124 13 29 8.0 11.3 0.00 0.00 0.00 45 1023.3
20260510173619 13 286 4.8 11.3 0.00 0.00 0.00 47 1023.3
20260510173116 12 300 1.6 3.2 0.00 0.00 0.00 46 1023.3
20260510172611 12 290 8.0 9.7 0.00 0.00 0.00 43 1023.6
20260510172108 12 337 4.8 8.0 0.00 0.00 0.00 44 1023.2
20260510171604 12 280 8.0 8.0 0.00 0.00 0.00 45 1023.2
20260510171102 12 277 12.9 14.5 0.00 0.00 0.00 42 1023.5
20260510170558 12 162 4.8 8.0 0.00 0.00 0.00 43 1023.3
20260510170055 13 57 1.6 1.6 0.00 0.00 0.00 44 1023.5
20260510165550 12 19 8.0 9.7 0.00 0.00 0.00 44 1023.5
20260510165047 12 340 3.2 3.2 0.00 0.00 0.00 50 1023.4
20260510164545 12 23 9.7 12.9 0.00 0.00 0.00 46 1023.3
20260510164041 11 80 1.6 1.6 0.00 0.00 0.00 46 1023.3
20260510163536 12 50 4.8 4.8 0.00 0.00 0.00 45 1023.5
20260510163033 12 65 3.2 3.2 0.00 0.00 0.00 46 1023.4
20260510162528 12 155 3.2 3.2 0.00 0.00 0.00 50 1023.4
20260510162024 11 133 1.6 1.6 0.00 0.00 0.00 47 1023.6
20260510161520 11 290 4.8 4.8 0.00 0.00 0.00 46 1023.6
20260510161017 11 8 4.8 9.7 0.00 0.00 0.00 48 1023.6
20260510160509 11 118 0.0 1.6 0.00 0.00 0.00 48 1023.5
20260510160008 11 83 6.4 8.0 0.00 0.00 0.00 46 1023.6
20260510155504 11 59 1.6 1.6 0.00 0.00 0.00 49 1023.3
20260510155000 11 254 4.8 9.7 0.00 0.00 0.00 49 1023.2
20260510154451 12 105 4.8 8.0 0.00 0.00 0.00 54 1023.3
20260510153950 11 146 3.2 3.2 0.00 0.00 0.00 51 1023.4
20260510153447 10 103 1.6 1.6 0.00 0.00 0.00 50 1023.6
20260510152944 11 59 3.2 3.2 0.00 0.00 0.00 53 1023.3
20260510152441 10 197 3.2 3.2 0.00 0.00 0.00 50 1023.4
20260510151937 10 241 4.8 4.8 0.00 0.00 0.00 51 1023.5
20260510151434 11 206 3.2 3.2 0.00 0.00 0.00 52 1023.6
20260510150930 10 159 3.2 3.2 0.00 0.00 0.00 52 1023.5
20260510150426 10 64 4.8 4.8 0.00 0.00 0.00 50 1023.5
20260510145922 10 113 1.6 1.6 0.00 0.00 0.00 49 1023.4
20260510145413 11 97 3.2 3.2 0.00 0.00 0.00 51 1023.4
20260510144910 10 69 1.6 1.6 0.00 0.00 0.00 53 1023.5
20260510144407 10 19 3.2 3.2 0.00 0.00 0.00 53 1023.3
20260510143901 10 175 3.2 3.2 0.00 0.00 0.00 53 1023.4
20260510143357 10 109 0.0 0.0 0.00 0.00 0.00 54 1023.1
20260510142855 10 76 4.8 4.8 0.00 0.00 0.00 53 1023.3
20260510142351 9 75 0.0 0.0 0.00 0.00 0.00 55 1023.3
20260510141848 8 58 1.6 3.2 0.00 0.00 0.00 59 1023.5
20260510141345 8 56 1.6 1.6 0.00 0.00 0.00 57 1023.3
20260510140842 8 81 0.0 0.0 0.00 0.00 0.00 57 1023.3
20260510140338 8 36 1.6 1.6 0.00 0.00 0.00 56 1023.3
20260510135831 8 99 1.6 1.6 0.00 0.00 0.00 56 1023.2
20260510135327 8 114 0.0 0.0 0.00 0.00 0.00 59 1023.4
20260510134825 7 78 0.0 1.6 0.00 0.00 0.00 59 1023.4
20260510134322 7 114 0.0 1.6 0.00 0.00 0.00 63 1023.3
20260510133818 6 55 0.0 1.6 0.00 0.00 0.00 62 1023.4
20260510133314 6 29 4.8 4.8 0.00 0.00 0.00 64 1023.3
20260510132810 5 17 1.6 3.2 0.00 0.00 0.00 67 1023.0
20260510132308 5 44 1.6 1.6 0.00 0.00 0.00 67 1023.3
20260510131805 4 40 3.2 3.2 0.00 0.00 0.00 68 1023.2
20260510131303 3 25 1.6 3.2 0.00 0.00 0.00 69 1023.2
20260510130759 3 343 4.8 4.8 0.00 0.00 0.00 69 1023.1
20260510130256 3 17 1.6 3.2 0.00 0.00 0.00 68 1023.1
20260510125752 3 23 6.4 8.0 0.00 0.00 0.00 69 1023.1
20260510125248 3 31 6.4 8.0 0.00 0.00 0.00 67 1023.0
20260510124745 3 59 0.0 1.6 0.00 0.00 0.00 67 1022.8
20260510124243 3 61 0.0 0.0 0.00 0.00 0.00 69 1023.0
20260510123738 2 35 1.6 1.6 0.00 0.00 0.00 69 1022.5
20260510123234 2 42 1.6 1.6 0.00 0.00 0.00 70 1022.7
20260510122730 2 31 3.2 3.2 0.00 0.00 0.00 70 1022.5
20260510122227 2 84 0.0 0.0 0.00 0.00 0.00 71 1022.6
20260510121723 0 84 0.0 0.0 0.00 0.00 0.00 75 1022.7
20260510121220 0 87 0.0 0.0 0.00 0.00 0.00 76 1022.5
20260510120718 0 70 0.0 0.0 0.00 0.00 0.00 77 1022.4
20260510120214 0 130 0.0 0.0 0.00 0.00 0.00 77 1022.5
20260510115709 0 130 0.0 1.6 0.00 0.00 0.00 77 1022.2
20260510115208 0 104 0.0 1.6 0.00 0.00 0.00 78 1022.3
20260510114703 -1 74 0.0 0.0 0.00 0.00 0.00 80 1022.2
20260510114200 -1 70 0.0 0.0 0.00 0.00 0.00 80 1022.2
20260510113655 -1 70 0.0 0.0 0.00 0.00 0.00 81 1021.9
20260510113152 -1 70 0.0 0.0 0.00 0.00 0.00 80 1021.9
20260510112643 -1 70 0.0 0.0 0.00 0.00 0.00 80 1021.9
20260510112140 -1 70 0.0 0.0 0.00 0.00 0.00 79 1021.7
20260510111636 -1 71 0.0 1.6 0.00 0.00 0.00 78 1021.5
20260510111132 -1 105 0.0 0.0 0.00 0.00 0.00 78 1021.8
20260510110628 0 105 1.6 1.6 0.00 0.00 0.00 77 1021.8
20260510110126 0 84 0.0 1.6 0.00 0.00 0.00 73 1021.6
20260510105621 0 56 1.6 3.2 0.00 0.00 0.00 74 1021.5
20260510105115 0 55 1.6 3.2 0.00 0.00 0.00 74 1021.6
20260510104613 0 11 3.2 3.2 0.00 0.00 0.00 76 1021.5
20260510104109 0 51 0.0 0.0 0.00 0.00 0.00 75 1021.5
20260510103606 0 36 0.0 0.0 0.00 0.00 0.00 74 1021.5
20260510103102 1 24 0.0 0.0 0.00 0.00 0.00 72 1021.5
20260510102557 1 12 3.2 3.2 0.00 0.00 0.00 73 1021.4
20260510102054 0 346 3.2 3.2 0.00 0.00 0.00 75 1021.5
20260510101552 0 47 0.0 0.0 0.00 0.00 0.00 74 1021.4
20260510101050 0 30 1.6 3.2 0.00 0.00 0.00 73 1021.5
20260510100545 0 23 1.6 1.6 0.00 0.00 0.00 73 1021.4
20260510100043 1 29 1.6 3.2 0.00 0.00 0.00 72 1021.5
20260510095539 1 22 3.2 3.2 0.00 0.00 0.00 71 1021.3
20260510095038 1 22 1.6 3.2 0.00 0.00 0.00 70 1021.3
20260510094533 1 26 1.6 1.6 0.00 0.00 0.00 70 1021.3
20260510094028 1 20 3.2 3.2 0.00 0.00 0.00 70 1021.2
20260510093525 1 353 3.2 3.2 0.00 0.00 0.00 70 1021.1
20260510093022 1 22 4.8 4.8 0.00 0.00 0.00 71 1021.0
20260510092519 1 25 4.8 4.8 0.00 0.00 0.00 70 1020.9
20260510092018 1 2 4.8 4.8 0.00 0.00 0.00 70 1021.1
20260510091516 0 18 1.6 3.2 0.00 0.00 0.00 71 1021.0
20260510091011 0 11 1.6 1.6 0.00 0.00 0.00 70 1021.1
20260510090509 0 357 1.6 1.6 0.00 0.00 0.00 71 1020.9
20260510090004 0 331 1.6 1.6 0.00 0.00 0.00 71 1020.7
20260510085459 1 332 1.6 1.6 0.00 0.00 0.00 70 1020.8
20260510084955 1 13 0.0 1.6 0.00 0.00 0.00 69 1020.6
20260510084452 1 34 0.0 0.0 0.00 0.00 0.00 68 1020.7
20260510083949 1 13 1.6 3.2 0.00 0.00 0.00 67 1020.7
20260510083445 1 2 4.8 4.8 0.00 0.00 0.00 67 1020.3
20260510082941 2 357 3.2 3.2 0.00 0.00 0.00 66 1020.3
20260510082439 2 356 1.6 3.2 0.00 0.00 0.00 65 1020.3
20260510081938 2 6 4.8 4.8 0.00 0.00 0.00 65 1020.4
20260510081434 2 1 3.2 3.2 0.00 0.00 0.00 64 1020.4
20260510080930 2 16 4.8 4.8 0.00 0.00 0.00 64 1020.1
20260510080428 2 19 3.2 3.2 0.00 0.00 0.00 63 1020.3
20260510075925 3 359 4.8 4.8 0.00 0.00 0.00 63 1020.3
20260510075424 2 6 8.0 9.7 0.00 0.00 0.00 63 1020.1
20260510074921 2 355 4.8 8.0 0.00 0.00 0.00 63 1020.1
20260510074418 2 354 3.2 3.2 0.00 0.00 0.00 63 1019.9
20260510073914 2 22 3.2 3.2 0.00 0.00 0.00 63 1020.3
20260510073409 3 10 3.2 3.2 0.00 0.00 0.00 62 1019.9
20260510072906 3 26 1.6 1.6 0.00 0.00 0.00 62 1020.0
20260510072403 3 27 1.6 3.2 0.00 0.00 0.00 61 1020.0
20260510071858 3 25 1.6 3.2 0.00 0.00 0.00 61 1019.7
20260510071355 3 17 1.6 3.2 0.00 0.00 0.00 61 1019.9
20260510070854 3 24 3.2 3.2 0.00 0.00 0.00 61 1019.8
20260510070351 3 28 1.6 3.2 0.00 0.00 0.00 61 1019.7
20260510065851 2 26 1.6 1.6 0.00 0.00 0.00 62 1019.7
20260510065348 2 33 0.0 0.0 0.00 0.00 0.00 63 1019.5
20260510064844 2 33 0.0 0.0 0.00 0.00 0.00 63 1019.6
20260510064342 2 33 0.0 0.0 0.00 0.00 0.00 61 1019.6
20260510063838 3 33 0.0 0.0 0.00 0.00 0.00 60 1019.5
20260510063335 3 33 0.0 0.0 0.00 0.00 0.00 59 1019.4
20260510062831 3 33 0.0 1.6 0.00 0.00 0.00 59 1019.6
20260510062327 3 29 0.0 1.6 0.00 0.00 0.00 58 1019.5
20260510061822 3 27 0.0 1.6 0.00 0.00 0.00 57 1019.5
20260510061320 3 34 1.6 1.6 0.00 0.00 0.00 58 1019.6
20260510060815 4 2 1.6 1.6 0.00 0.00 0.00 56 1019.3
20260510060313 5 306 1.6 1.6 0.00 0.00 0.00 55 1019.3
20260510055809 5 340 1.6 1.6 0.00 0.00 0.00 55 1019.3
20260510055308 5 316 1.6 3.2 0.00 0.00 0.00 53 1019.2
20260510054807 5 8 1.6 1.6 0.00 0.00 0.00 53 1019.1
20260510054304 6 354 3.2 3.2 0.00 0.00 0.00 52 1019.0
20260510053804 6 342 4.8 4.8 0.00 0.00 0.00 50 1019.0
20260510053254 6 355 6.4 8.0 0.00 0.00 0.00 50 1019.1
20260510052750 6 342 6.4 8.0 0.00 0.00 0.00 51 1018.7
20260510052246 6 9 1.6 3.2 0.00 0.00 0.00 52 1018.6
20260510051742 5 348 3.2 3.2 0.00 0.00 0.00 52 1018.6
20260510051239 5 353 3.2 3.2 0.00 0.00 0.00 53 1018.6
20260510050736 5 2 3.2 3.2 0.00 0.00 0.00 54 1018.3
20260510050233 5 99 0.0 0.0 0.00 0.00 0.00 54 1018.2
20260510045730 5 152 1.6 1.6 0.00 0.08 0.08 53 1018.2
20260510045226 6 177 1.6 1.6 0.00 0.08 0.08 52 1018.0
20260510044723 5 168 1.6 1.6 0.00 0.08 0.08 52 1018.0
20260510044221 5 68 0.0 0.0 0.00 0.08 0.08 54 1017.9
20260510043716 5 70 0.0 0.0 0.00 0.08 0.08 53 1017.9
20260510043213 5 68 0.0 0.0 0.00 0.08 0.08 52 1017.8
20260510042710 5 68 0.0 0.0 0.00 0.08 0.08 53 1017.6
20260510042206 6 68 0.0 0.0 0.00 0.08 0.08 51 1017.6
20260510041703 6 56 0.0 0.0 0.00 0.08 0.08 50 1017.5
20260510041201 6 56 0.0 0.0 0.00 0.08 0.08 51 1017.7
20260510040657 5 59 1.6 1.6 0.00 0.08 0.08 53 1017.6
20260510040154 5 208 0.0 0.0 0.00 0.08 0.08 54 1017.7
20260510035650 5 208 0.0 0.0 0.00 0.08 0.08 53 1017.5
20260510035145 6 210 1.6 1.6 0.00 0.08 0.08 51 1017.5
20260510034642 7 50 0.0 0.0 0.00 0.08 0.08 47 1017.7
20260510034139 7 52 1.6 1.6 0.00 0.08 0.08 47 1017.7
20260510033635 8 47 1.6 1.6 0.00 0.08 0.08 46 1017.4
20260510033133 8 43 1.6 1.6 0.00 0.08 0.08 46 1017.5
20260510032630 8 47 1.6 1.6 0.00 0.08 0.08 46 1017.4
20260510032125 8 32 3.2 3.2 0.00 0.08 0.08 45 1017.3
20260510031620 8 37 1.6 1.6 0.00 0.08 0.08 45 1017.4
20260510031117 8 27 3.2 3.2 0.00 0.08 0.08 45 1017.3
20260510030611 8 25 3.2 3.2 0.00 0.08 0.08 44 1017.1
20260510030109 8 23 4.8 4.8 0.00 0.08 0.08 44 1017.3
20260510025606 8 37 3.2 3.2 0.00 0.08 0.08 44 1017.3
20260510025103 8 359 3.2 3.2 0.00 0.08 0.08 44 1017.4
20260510024600 8 44 1.6 1.6 0.00 0.08 0.08 44 1017.2
20260510024056 8 23 3.2 3.2 0.00 0.08 0.08 45 1017.2
20260510023547 8 24 3.2 3.2 0.00 0.08 0.08 46 1017.0
20260510023045 8 35 3.2 3.2 0.00 0.08 0.08 46 1017.1
20260510022543 8 37 1.6 1.6 0.00 0.08 0.08 45 1017.0
20260510022038 8 29 0.0 1.6 0.00 0.08 0.08 45 1017.0
20260510021535 9 26 3.2 3.2 0.00 0.08 0.08 45 1016.7
20260510021032 10 21 3.2 3.2 0.00 0.08 0.08 44 1016.4
20260510020527 10 21 1.6 1.6 0.00 0.08 0.08 43 1016.7
20260510020023 10 350 3.2 3.2 0.00 0.08 0.08 41 1016.6
20260510015518 11 17 3.2 3.2 0.00 0.08 0.08 42 1016.3
20260510015014 11 355 3.2 3.2 0.00 0.08 0.08 40 1016.4
20260510014511 11 322 4.8 4.8 0.00 0.08 0.08 40 1016.3
20260510014008 12 316 3.2 3.2 0.00 0.08 0.08 39 1016.2
20260510013502 12 321 4.8 4.8 0.00 0.08 0.08 38 1016.3
20260510012959 12 334 8.0 9.7 0.00 0.08 0.08 36 1016.2
20260510012453 13 316 8.0 9.7 0.00 0.08 0.08 35 1016.2
20260510011949 13 353 9.7 12.9 0.00 0.08 0.08 34 1016.2
20260510011444 13 320 9.7 12.9 0.00 0.08 0.08 34 1016.2
20260510010940 13 320 8.0 11.3 0.00 0.08 0.08 33 1016.2
20260510010437 13 321 8.0 11.3 0.00 0.08 0.08 33 1016.0
20260510005933 14 351 8.0 9.7 0.00 0.08 0.08 34 1016.1
20260510005424 14 334 9.7 11.3 0.00 0.08 0.08 33 1016.0
20260510004922 14 306 11.3 14.5 0.00 0.08 0.08 33 1015.7
20260510004419 14 308 14.5 16.1 0.00 0.08 0.08 32 1015.8
20260510003917 15 299 12.9 16.1 0.00 0.08 0.08 32 1015.8
20260510003414 15 331 12.9 16.1 0.00 0.08 0.08 32 1015.9
20260510002913 15 322 12.9 14.5 0.00 0.08 0.08 33 1015.7
20260510002410 15 313 16.1 16.1 0.00 0.08 0.08 32 1015.9
20260510001906 15 303 16.1 20.9 0.00 0.08 0.08 33 1015.7
20260510001404 15 301 14.5 17.7 0.00 0.08 0.08 33 1015.9
20260510000901 15 324 9.7 12.9 0.00 0.08 0.08 33 1015.7
20260510000358 15 359 12.9 16.1 0.00 0.08 0.08 32 1015.7
20260509235854 15 352 11.3 14.5 0.00 0.08 0.08 33 1015.9
20260509235350 15 323 11.3 12.9 0.00 0.08 0.08 33 1015.6
20260509234847 15 321 14.5 20.9 0.00 0.08 0.08 33 1015.9
20260509234343 15 332 9.7 11.3 0.00 0.08 0.08 35 1015.7
20260509233842 15 285 14.5 17.7 0.00 0.08 0.08 33 1015.6
20260509233334 15 283 14.5 16.1 0.00 0.08 0.08 34 1015.6
20260509232829 15 289 11.3 12.9 0.00 0.08 0.08 36 1015.7
20260509232327 15 277 12.9 14.5 0.00 0.08 0.08 36 1015.5
20260509231823 15 266 19.3 22.5 0.00 0.08 0.08 35 1015.5
20260509231320 15 311 9.7 11.3 0.00 0.08 0.08 36 1015.7
20260509230818 15 307 11.3 14.5 0.00 0.08 0.08 34 1015.6
20260509230315 15 305 14.5 16.1 0.00 0.08 0.08 34 1015.6
20260509225809 15 316 12.9 16.1 0.00 0.08 0.08 35 1015.5
20260509225307 15 320 11.3 12.9 0.00 0.08 0.08 35 1015.8
20260509224803 15 313 16.1 22.5 0.00 0.08 0.08 34 1015.5
20260509224259 15 347 6.4 8.0 0.00 0.08 0.08 34 1015.3
20260509223756 15 327 16.1 20.9 0.00 0.08 0.08 34 1015.6
20260509223253 15 342 20.9 24.1 0.00 0.08 0.08 33 1015.5
20260509222749 15 320 16.1 17.7 0.00 0.08 0.08 34 1015.6
20260509222245 15 315 14.5 16.1 0.00 0.08 0.08 34 1015.3
20260509221740 15 343 11.3 14.5 0.00 0.08 0.08 35 1015.7
20260509221237 15 298 14.5 16.1 0.00 0.08 0.08 35 1015.7
20260509220733 15 349 12.9 16.1 0.00 0.08 0.08 35 1015.6
20260509220230 15 338 12.9 16.1 0.00 0.08 0.08 35 1015.8
20260509215725 15 336 16.1 22.5 0.00 0.08 0.08 36 1015.5
20260509215221 15 324 14.5 16.1 0.00 0.08 0.08 36 1015.8
20260509214719 15 328 8.0 11.3 0.00 0.08 0.08 37 1015.6
20260509214216 14 327 14.5 17.7 0.00 0.08 0.08 37 1015.8
20260509213713 14 300 8.0 9.7 0.00 0.08 0.08 37 1015.7
20260509213208 15 301 12.9 14.5 0.00 0.08 0.08 37 1015.8
20260509212706 14 0 12.9 16.1 0.00 0.08 0.08 38 1015.7
20260509212202 15 354 19.3 25.7 0.00 0.08 0.08 39 1015.9
20260509211658 14 338 6.4 8.0 0.00 0.08 0.08 41 1015.7
20260509211155 15 298 14.5 16.1 0.00 0.08 0.08 41 1016.0
20260509210652 15 280 14.5 17.7 0.00 0.08 0.08 39 1016.0
20260509210144 14 323 12.9 14.5 0.00 0.08 0.08 39 1015.8
20260509205639 13 345 20.9 22.5 0.00 0.08 0.08 39 1015.8
20260509205138 13 336 17.7 20.9 0.00 0.08 0.08 40 1015.8
20260509204629 13 311 14.5 20.9 0.00 0.08 0.08 41 1016.0
20260509204126 14 306 12.9 16.1 0.00 0.08 0.08 42 1015.9
20260509203622 13 324 20.9 25.7 0.00 0.08 0.08 41 1016.0
20260509203121 13 291 19.3 20.9 0.00 0.08 0.08 41 1016.0
20260509202620 13 286 9.7 11.3 0.00 0.08 0.08 44 1016.3
20260509202115 13 276 8.0 9.7 0.00 0.08 0.08 42 1016.2
20260509201610 13 336 24.1 27.4 0.00 0.08 0.08 40 1015.7
20260509201108 13 328 16.1 17.7 0.00 0.08 0.08 40 1016.1
20260509200603 13 280 17.7 24.1 0.00 0.08 0.08 41 1016.1
20260509200059 13 317 20.9 24.1 0.00 0.08 0.08 41 1016.2
20260509195555 13 18 8.0 9.7 0.00 0.08 0.08 44 1016.0
20260509195050 13 340 19.3 20.9 0.00 0.08 0.08 42 1016.3
20260509194549 13 280 16.1 20.9 0.00 0.08 0.08 43 1016.2
20260509194047 13 303 14.5 17.7 0.00 0.08 0.08 45 1015.9
20260509193542 12 279 6.4 8.0 0.00 0.08 0.08 44 1015.9
20260509193039 13 306 22.5 33.8 0.00 0.08 0.08 41 1016.1
20260509192536 13 14 11.3 14.5 0.00 0.08 0.08 47 1016.2
20260509192031 13 342 16.1 17.7 0.00 0.08 0.08 45 1016.0
20260509191525 12 320 4.8 4.8 0.00 0.08 0.08 44 1016.1
20260509191021 12 267 11.3 12.9 0.00 0.08 0.08 49 1016.0
20260509190518 12 348 14.5 16.1 0.00 0.08 0.08 46 1016.1
20260509190016 12 350 6.4 9.7 0.00 0.08 0.08 46 1015.9
20260509185513 12 302 16.1 17.7 0.00 0.08 0.08 47 1016.0
20260509185009 12 5 6.4 9.7 0.00 0.08 0.08 42 1016.1
20260509184508 12 302 11.3 12.9 0.00 0.08 0.08 48 1016.2
20260509184004 12 296 11.3 12.9 0.00 0.08 0.08 47 1016.3
20260509183500 12 323 4.8 8.0 0.00 0.08 0.08 46 1016.3
20260509182956 12 325 12.9 17.7 0.00 0.08 0.08 48 1016.0
20260509182452 12 226 4.8 4.8 0.00 0.08 0.08 51 1016.2
20260509181949 12 223 8.0 11.3 0.00 0.08 0.08 49 1016.1
20260509181447 11 4 9.7 11.3 0.00 0.08 0.08 50 1016.2
20260509180945 11 17 6.4 8.0 0.00 0.08 0.08 46 1016.2